Location: Mohawk View
(42.7837°N, 73.7885°W)
Time: 15:57:45
(UTC+00:00)

USA 306 - Pass Details

Date: 17 June 2021
Orbit: 566 x 573 km, 54.0° (Epoch: 16 July)

Event Time Altitude Azimuth Distance (km) Brightness Sun altitude
Exits shadow 07:53:09 17° 242° (WSW) 1,468 4.4 -12.3°
Maximum altitude 07:56:21 70° 324° (NW) 606 3.0 -11.9°
Drops below altitude 10° 08:00:36 10° 49° (NE) 1,871 7.1 -11.4°
Sets 08:02:52 0° 51° (NE) 2,769 8.4 -11.1°
